< < Back
Terminal Aerodrome Forecast


Current Version              Previous Versions:   1  2  3  4  5  6  7  8  9  

Terminal Aerodrome Forecast

052
FTUS42 KILM 201700
TAFILM
TAF
KILM 201725Z 2018/2118 04007KT 6SM -RA SCT008 OVC050
     FM202100 03006KT 4SM BR BKN008 OVC030
      TEMPO 2021/2101 3SM -RA BR SCT008 OVC030
     FM211000 01006KT 4SM BR SCT006 SCT020 BKN050
     FM211500 04009KT P6SM SCT040 BKN060=

Latest METAR

674
SAUS70 KWBC 210500 RRD
MTRILM
METAR KILM 210453Z AUTO 04005KT 6SM BR OVC065 03/03 A3025 RMK AO2 SLP244
T00330028 400720033


USA.gov is the U.S. government's official web portal to all federal, state and local government web resources and services.